FENGYUN 1C DEB

Satellite information

Favourite Embed

Satellite Type and Status

DEBRISIN ORBIT

Key statistics

Satellite FENGYUN 1C DEB at a glance.

Uptime

9715

Days in orbit

Revolutions

≈ 14.3

Per day

Orbit

SSO

Sun Synchronous Orbit

Inclination

98.0

Latest

Satellite identification and parameters

Extended collection of information and parameters for FENGYUN 1C DEB.

Object identification

Identified? True

Debris? True

Object name: FENGYUN 1C DEB

International designator: 1999-025BHZ

Object number (NORAD): 31171

Object ID (CCSDS): 31171

Country: PEOPLES REPUBLIC OF CHINA (PRC)

Current information (Y/N): Y

RCS size: SMALL

Orbital parameters

Period: 100.37 minutes

Inclination: 98.0159 deg

SMA: 7154.212 km

Apoapsis: 886.738 km

Periapsis: 665.416 km

RAAN: 334.0626 deg

Eccentricy: 0.01546798

Argument of periapsis: 324.2421 deg

Mean anomaly: 94.6903 deg

Mean motion: 14.34696568 rev/day

Mean motion (dot): 0.00026327 rev/day2

B* drag term: 0.0081114124 1/REarth

Two-line elements (TLE)

Creation date: Dec. 12, 2025, 10:14 a.m.

Reference frame: TEME

Reference center: EARTH

Epoch: Dec. 10, 2025, 5:04 a.m. UTC

TLE line 0: 0 FENGYUN 1C DEB

TLE line 1: 1 31171U 99025BHZ 25344.21170433 .00026327 00000-0 81114-2 0 9994

TLE line 2: 2 31171 98.0159 334.0626 0154680 324.2421 94.6903 14.34696568957940

Live tracking on map

Real-time ground track for satellite FENGYUN 1C DEB.

In-orbit conjunctions

A list of the most updated potential collisions computed for object FENGYUN 1C DEB.

Target Orbit TCA Probability of collision Miss distance Type
CZ-4 DEB SSO 2025-10-09 19:09:46 0.0001310083 159.0 (m) DEBRIS
COSMOS 1809 LEO 2024-08-25 15:39:09 0.0003667283 639.0 (m) PAYLOAD

Associated space launch

Chinese polar orbiting meteorological satellite

FENGYUN 1C DEB was lifted into orbit during the mission ‘Long March 4B | Feng Yun 1C’, on board a Long March 4B space rocket.

The launch took place on May 10, 1999, 1:33 a.m. from Launch Complex 7.

For more information about the launch, click the button.

Launch to space Long March 4B | Feng Yun 1C
Long March 4B | Feng Yun 1C

Agency: N/A

Status: Launch Successful

Launch date: May 10, 1999, 1:33 a.m. UTC

Rocket: Long March 4B

Launch pad: Launch Complex 7

Location: Taiyuan Satellite Launch Center, People's Republic of China

...

Latest news about this satellite

There are no fresh news available about this satellite. Check back as we update our databases every day.


Newsletter sign-up

Weekly statistics, charts and insights to help you stay on top of the space industry.